Wind_Speed
20 20 20 21 21 21 20 19 18 17 17 15 13 11 10 9 6 5 5 6 9 10 10 10 10 9 8 7 7 8 8 9 9 8 6 4 2 3 4 5 5 5 4 3 3 4 5 6 6 6 6 6 5 5 5 6 6 5 6 7 8 8 9 11 13 14 13 11 9
21 21 21 21 22 22 22 20 19 18 17 16 15 13 11 9 6 4 4 5 7 9 10 9 9 9 8 6 5 5 6 6 7 6 5 4 3 3 4 5 5 4 4 3 3 3 4 6 8 9 8 8 8 7 6 5 5 5 6 7 7 7 7 9 11 12 12 10 8
22 22 22 22 22 22 22 21 20 19 18 17 17 15 13 10 7 5 5 5 6 8 10 9 7 7 7 6 4 3 4 4 4 3 1 0 2 4 4 4 4 3 3 3 3 3 3 5 6 8 8 7 7 7 6 6 4 3 3 5 6 7 7 7 9 10 9 8 6
22 23 24 23 22 22 21 21 21 21 20 19 19 18 15 12 10 8 7 7 6 7 9 9 7 5 4 4 4 3 2 3 3 3 3 3 2 3 3 3 3 2 2 2 3 3 3 4 5 6 7 7 7 6 6 7 6 5 3 3 4 5 6 7 8 8 8 7 6
21 24 25 25 24 23 22 21 22 22 22 22 21 20 18 16 14 12 11 9 7 7 8 9 9 7 6 5 5 4 3 3 4 3 3 3 3 2 2 2 2 2 2 2 2 2 3 3 3 4 5 6 7 7 7 7 8 7 6 5 5 6 6 7 7 8 8 8 8
20 22 25 26 26 25 24 23 22 22 23 23 23 22 20 19 18 17 16 13 10 8 8 8 8 8 8 7 6 5 4 5 5 5 4 3 2 1 1 2 2 2 2 2 2 2 2 2 2 3 4 5 6 7 8 9 8 8 8 7 7 7 7 7 7 7 8 8 8
18 20 23 26 27 28 27 25 24 23 23 24 24 24 23 21 22 22 20 17 14 12 10 8 8 8 8 7 7 7 7 8 8 6 4 3 2 3 3 2 2 2 2 2 2 2 2 2 2 2 2 3 4 6 8 9 10 10 10 9 8 8 8 8 7 7 7 7 7
17 19 21 23 26 28 29 28 27 26 25 25 25 24 24 24 24 24 23 20 17 15 13 11 9 8 7 7 7 7 8 9 8 7 5 4 4 4 3 2 1 2 2 2 3 3 2 2 2 1 1 1 2 4 5 7 10 11 11 11 10 9 9 9 9 8 8 7 7
14 16 18 21 23 26 28 29 29 28 27 27 26 26 26 26 27 26 24 20 18 16 15 13 11 9 7 6 6 6 7 8 8 7 7 7 6 5 3 2 1 1 2 2 3 3 3 3 3 2 2 1 0 2 3 5 8 10 12 13 12 12 11 10 10 10 9 8 7
10 13 15 17 20 22 25 27 29 30 30 29 29 28 28 29 29 27 24 20 17 15 15 14 12 10 8 6 6 6 6 7 7 8 8 8 7 5 4 3 2 1 1 2 3 3 4 4 4 4 3 2 2 1 3 4 7 9 12 13 14 14 13 13 12 12 11 10 10
7 9 11 14 16 19 21 24 26 28 29 29 30 30 30 30 30 28 25 21 17 15 14 13 12 10 8 7 6 6 6 7 7 8 8 7 6 5 5 3 2 1 1 2 2 3 4 4 4 4 4 4 3 2 3 4 6 9 11 13 15 15 15 14 14 14 13 12 12
2 4 6 9 13 15 17 19 21 24 26 27 28 28 28 28 28 26 24 21 17 14 13 12 11 9 8 7 7 7 7 7 7 7 7 6 6 6 5 4 2 2 2 2 3 3 3 4 4 4 4 4 4 3 3 4 6 8 11 13 15 16 16 16 15 15 15 14 14
1 1 3 5 8 12 14 15 17 18 21 22 24 25 25 24 24 24 22 19 16 14 12 12 11 10 9 9 9 8 8 7 7 7 7 6 6 6 5 4 3 2 2 3 3 3 3 3 3 4 4 4 4 4 4 4 6 8 10 12 14 15 16 16 16 16 16 15 15
2 2 3 3 5 8 10 12 13 15 16 18 20 21 21 21 21 21 20 18 15 13 12 12 11 11 11 10 10 9 9 8 8 7 7 7 6 6 5 4 3 3 3 4 4 4 3 3 2 2 3 3 4 4 4 4 5 7 8 11 12 14 15 16 17 17 16 16 15
4 4 4 3 3 4 7 8 10 12 14 14 16 17 18 18 19 18 17 15 14 13 12 12 11 11 11 10 10 9 9 9 8 8 8 7 7 6 5 4 4 4 4 4 4 4 3 3 2 2 2 3 3 3 4 4 5 6 7 9 10 12 14 15 16 16 16 15 14
5 5 5 4 3 3 4 5 7 8 10 11 12 14 15 15 16 15 14 13 13 12 12 12 11 11 10 10 9 9 9 9 9 8 8 8 7 7 6 5 5 4 4 4 4 4 3 3 3 2 2 2 2 3 3 4 5 5 7 8 9 11 13 14 15 16 15 15 13
4 5 5 6 4 3 3 3 4 5 7 8 9 10 11 12 12 12 11 11 11 11 12 12 11 11 10 9 9 8 8 8 7 7 7 8 8 8 8 7 7 6 5 5 4 4 4 3 3 3 3 2 2 3 3 4 4 5 6 7 9 10 11 12 14 14 14 14 12
4 4 6 7 6 5 3 3 3 4 4 5 6 7 8 8 9 9 10 10 11 11 11 11 11 11 10 10 9 8 7 7 6 6 6 7 8 8 9 9 9 8 7 6 5 4 4 4 4 4 3 3 3 3 4 4 5 5 6 7 8 8 9 10 10 11 12 12 11
3 4 6 7 8 6 5 3 3 3 3 4 5 6 7 8 9 10 11 11 11 11 10 10 10 11 10 10 10 9 9 7 7 6 7 7 8 8 9 10 10 9 8 7 6 5 4 4 4 4 4 4 4 4 4 5 5 5 6 6 6 6 6 6 7 8 9 9 9
1 3 4 6 7 8 7 6 5 5 6 7 8 9 10 11 12 12 12 12 11 10 10 10 10 10 10 10 9 9 9 8 8 7 7 8 8 9 9 10 10 10 9 8 6 5 5 4 5 5 5 5 5 5 5 5 5 6 6 6 6 5 5 5 5 6 7 8 8
1 1 3 4 6 7 8 8 8 8 9 10 11 12 13 13 13 12 12 11 10 9 9 9 9 8 8 8 8 8 8 9 8 8 8 8 9 9 10 10 11 11 10 8 7 6 5 5 5 5 5 5 6 6 6 6 6 6 6 6 6 5 5 4 5 5 6 7 7
3 2 2 3 4 6 7 8 9 10 11 12 13 13 13 12 11 10 10 9 8 8 7 7 7 7 7 7 7 8 8 8 8 8 8 9 9 10 10 11 11 11 10 9 7 5 5 4 5 5 5 6 7 7 7 8 8 8 8 7 7 6 5 5 5 6 6 7 7
5 5 6 7 8 9 11 11 12 13 13 13 12 12 11 10 9 8 7 7 6 6 6 6 6 7 7 7 7 7 8 8 8 8 8 8 9 10 10 11 12 12 11 10 7 5 4 4 4 4 5 6 7 8 9 9 9 9 9 9 8 7 6 6 6 7 7 7 8
6 7 9 10 12 12 12 12 11 11 11 10 9 8 7 7 6 5 5 4 4 4 5 5 5 6 6 6 7 7 8 8 7 7 8 8 9 10 11 11 12 12 12 10 8 6 5 4 4 5 6 7 8 9 9 9 9 9 9 9 8 8 8 7 7 7 8 8 8
6 8 9 10 11 11 10 9 8 7 6 6 5 4 3 3 3 3 3 3 3 3 4 4 5 5 5 6 6 7 7 7 7 8 8 9 9 10 11 12 12 13 12 11 9 7 6 6 6 7 7 8 8 9 9 9 9 8 8 8 8 8 8 8 8 8 9 8 8
6 7 8 8 8 8 7 6 5 4 3 2 2 2 2 3 3 2 2 3 3 4 4 5 5 6 6 7 7 8 8 8 8 9 9 10 10 10 11 12 12 13 13 12 10 9 8 8 8 9 9 8 8 8 8 7 7 6 6 6 6 7 7 8 8 8 9 9 8
8 8 8 8 8 7 6 6 5 4 4 4 3 3 3 3 3 3 3 3 4 4 5 6 6 6 7 8 9 9 10 10 10 10 10 11 11 11 11 11 12 13 13 13 12 11 10 9 9 9 8 8 7 6 6 5 5 4 4 4 4 5 6 7 8 9 9 9 8
10 10 10 10 10 9 9 8 8 7 5 4 3 3 2 3 4 4 4 4 4 4 5 5 6 6 7 8 8 9 10 10 11 11 11 11 11 11 11 12 12 13 13 14 13 12 10 9 8 8 7 6 5 4 4 3 3 3 3 3 3 4 5 6 7 8 9 9 8
10 11 11 11 11 10 10 9 8 6 5 5 5 4 3 3 4 4 4 4 4 4 4 4 4 5 5 6 7 8 9 10 10 10 10 11 11 11 11 12 12 12 12 12 11 10 8 7 6 5 5 4 3 3 2 2 2 2 2 2 3 4 4 6 7 8 9 9 8
10 10 9 8 7 7 6 6 6 6 6 6 5 4 3 3 3 4 4 4 3 3 2 3 3 3 4 5 6 7 8 8 8 8 8 8 8 9 9 9 8 7 7 7 7 6 5 5 4 4 3 3 2 2 2 2 2 3 3 4 4 5 5 6 7 8 8 9 8
6 6 5 4 4 4 5 6 6 6 5 4 3 2 2 3 3 3 3 2 2 2 2 2 2 2 2 3 4 4 5 5 5 5 5 5 4 4 3 3 2 2 2 2 2 2 2 3 3 2 2 2 2 2 3 3 3 4 4 5 5 6 6 7 7 7 7 7 7
5 5 5 5 5 5 5 5 4 4 3 3 2 2 2 2 2 2 2 2 1 1 2 1 1 1 1 1 1 2 2 3 3 3 3 3 3 3 3 3 2 2 1 1 0 1 1 2 2 2 2 2 2 3 3 4 4 5 5 5 6 6 6 6 6 6 6 5 5
6 6 6 6 6 5 5 4 3 3 3 3 2 2 2 2 1 2 2 3 3 3 3 2 2 2 2 2 2 2 2 2 2 2 2 3 3 3 4 3 3 3 2 2 1 1 1 1 2 2 2 3 3 3 4 4 5 5 5 5 5 5 6 6 5 5 5 4 4
7 7 7 7 7 6 5 4 4 4 3 3 3 3 3 3 4 4 5 5 5 5 4 4 4 3 3 2 2 2 2 2 2 2 3 3 3 3 3 3 2 2 2 2 1 2 2 2 2 3 3 3 3 4 4 5 5 5 5 5 5 5 5 5 5 5 5 4 5
8 8 8 8 8 7 6 5 5 5 4 4 4 4 4 5 5 6 6 6 6 5 5 4 4 3 3 2 2 2 2 3 3 3 3 3 3 2 2 2 2 1 1 1 1 2 2 3 3 3 3 4 4 4 5 5 5 5 4 4 4 4 5 5 5 5 5 5 5
9 9 9 9 8 8 7 7 6 6 6 5 5 5 5 6 6 6 6 6 6 6 6 5 5 5 5 5 4 4 4 4 4 4 3 3 3 3 2 2 2 2 1 1 1 2 3 3 3 4 4 4 4 5 5 5 5 4 4 4 4 4 5 5 5 5 5 5 5
10 9 9 9 9 9 8 8 8 7 7 7 6 6 6 6 6 6 6 7 7 7 6 6 6 6 6 5 5 5 5 4 4 4 4 3 3 2 2 2 2 2 1 1 1 2 2 3 3 4 4 4 5 5 5 5 4 4 4 4 4 5 5 5 5 5 5 5 5
10 9 8 8 8 9 9 9 8 8 8 7 7 7 7 6 6 7 7 7 7 7 6 6 6 6 5 5 5 5 5 4 4 4 4 3 3 2 2 2 2 1 1 1 1 1 2 3 3 4 4 4 5 5 5 4 4 4 4 4 4 4 4 5 5 5 5 5 5
9 9 8 7 8 8 9 9 9 8 8 7 7 7 6 6 6 7 7 8 7 7 6 6 6 6 5 5 4 4 4 4 4 4 4 3 3 2 2 2 1 1 0 1 1 2 3 3 4 4 4 5 5 5 5 5 5 4 4 4 4 4 4 4 4 4 5 4 4
7 8 8 7 7 8 8 8 8 8 8 7 7 6 6 6 6 7 7 8 7 7 6 6 6 6 5 5 5 4 4 4 4 4 4 4 3 3 3 3 2 2 1 1 1 2 3 4 4 4 5 5 5 5 5 5 5 5 5 4 4 4 4 4 4 4 4 4 4
5 6 7 7 8 8 8 8 8 8 7 7 6 6 6 6 6 7 7 8 8 7 6 6 6 6 6 6 5 4 4 4 4 4 4 4 4 4 4 4 4 3 2 1 1 2 3 4 4 5 5 5 5 5 5 5 5 5 5 4 4 4 4 4 4 4 4 4 4
Wind_Direction
216 216 216 214 209 207 206 206 203 198 195 195 198 200 200 200 206 218 225 216 204 200 197 194 191 187 181 172 163 161 165 168 172 175 180 183 148 104 99 99 100 103 111 127 148 161 164 169 179 199 217 225 209 184 157 131 120 128 148 168 184 194 199 196 193 193 198 207 205
217 216 217 217 215 212 210 209 208 206 203 202 202 203 206 211 225 246 257 244 222 211 205 200 193 187 185 189 189 182 177 178 181 180 178 177 166 137 111 103 104 111 120 132 147 165 173 175 180 190 205 219 216 198 171 141 124 121 129 141 156 170 184 194 199 205 211 219 220
218 217 218 219 219 218 216 214 214 213 212 210 208 208 211 221 236 258 273 268 244 223 214 212 201 186 182 192 211 209 186 179 196 217 254 83 131 128 116 100 98 108 124 136 146 160 176 187 192 197 205 215 218 201 176 156 153 150 138 135 140 148 161 176 190 201 210 217 216
221 218 218 219 221 221 221 220 218 216 216 215 213 212 216 225 240 258 268 270 261 241 227 222 217 202 191 202 230 232 201 178 209 254 311 0 47 84 90 77 73 83 107 122 134 147 165 186 200 208 215 220 223 213 192 172 173 183 193 175 160 156 159 167 178 189 197 202 201
225 221 219 220 221 222 224 224 222 220 218 217 216 216 219 228 242 254 263 267 267 256 241 231 228 221 212 214 230 240 234 211 227 262 306 353 30 42 31 13 16 28 52 76 102 124 145 165 189 208 219 226 229 229 220 203 188 187 193 200 198 189 181 177 181 187 193 199 202
229 224 221 220 221 222 224 225 226 225 222 220 218 218 223 232 245 255 261 263 264 260 252 242 234 229 223 217 218 224 230 229 242 263 295 339 12 351 278 294 322 348 10 27 50 75 105 130 157 185 208 223 233 236 235 229 218 207 204 208 211 206 200 196 196 198 200 203 206
231 228 224 222 222 222 224 225 227 227 226 224 222 222 227 237 248 256 260 260 260 259 256 249 240 232 226 219 211 207 213 224 240 256 279 307 300 267 255 269 301 330 348 1 18 36 56 81 109 140 173 200 222 233 238 238 235 230 226 225 224 218 212 210 213 214 211 212 215
233 230 227 224 223 222 223 225 226 227 227 227 226 225 228 238 249 256 260 260 258 255 253 250 244 235 226 217 208 202 205 216 232 246 260 265 258 251 249 259 287 319 335 344 356 8 20 31 43 68 114 165 201 223 234 238 239 237 236 236 234 230 224 222 223 223 223 226 233
235 233 230 227 224 223 223 224 225 227 228 228 229 229 232 238 247 255 260 261 257 253 250 248 245 239 230 220 209 203 204 211 222 233 241 242 239 234 230 233 259 304 325 333 340 348 353 356 0 5 7 5 216 223 229 233 235 237 238 238 238 236 233 230 231 230 230 235 246
236 234 232 229 226 225 224 224 225 227 229 230 232 234 236 240 246 253 259 260 256 251 247 245 243 239 232 222 212 206 207 211 217 224 228 229 225 219 213 215 226 270 311 323 331 334 335 334 337 338 335 329 315 268 239 231 231 233 235 236 237 237 237 236 236 235 235 237 246
237 236 233 230 227 225 224 224 225 226 229 231 233 236 238 242 246 251 256 257 255 250 245 244 241 235 227 217 210 208 210 213 217 220 221 220 215 209 207 208 217 246 290 312 321 323 324 322 320 319 318 313 307 286 258 239 233 232 233 234 236 237 238 238 239 238 237 238 243
243 247 241 234 228 225 223 222 224 225 227 230 232 235 238 241 245 249 252 255 253 248 245 242 237 228 218 210 207 208 212 216 218 220 219 215 210 206 207 211 222 247 279 298 307 312 313 312 308 302 299 297 292 283 268 249 240 236 236 236 236 238 239 240 240 240 239 239 241
304 310 281 252 235 226 222 220 221 223 225 227 230 233 236 238 241 244 248 250 250 247 244 240 233 223 214 210 209 210 212 216 219 220 218 213 209 207 209 215 232 260 282 293 297 300 301 300 296 290 284 280 274 270 263 255 245 241 239 239 239 240 241 241 241 240 240 239 240
281 293 295 280 248 231 222 217 217 218 221 223 226 229 232 235 237 240 242 245 245 244 242 238 232 224 217 214 212 211 211 213 216 217 217 214 212 212 215 224 243 265 280 289 290 290 287 284 277 271 267 263 260 256 254 252 249 246 243 243 242 242 242 241 241 240 239 238 238
265 267 271 278 263 238 224 216 214 214 216 219 223 226 228 231 234 236 237 238 238 237 236 235 232 228 224 219 213 210 208 209 212 215 217 221 224 228 231 239 250 262 272 278 280 277 272 267 264 260 257 254 253 251 250 251 253 252 250 248 246 245 243 242 242 241 239 237 236
262 259 255 255 254 238 224 216 209 206 208 212 216 219 221 224 228 230 231 230 229 229 229 229 229 231 231 226 217 210 207 208 211 216 223 231 239 246 252 255 256 259 262 264 265 264 262 260 261 264 264 260 259 257 257 258 259 260 258 256 253 250 247 245 243 241 240 238 236
266 254 245 242 238 228 216 211 200 193 193 197 201 205 208 212 217 220 220 219 219 220 221 223 225 230 234 234 229 223 218 217 219 224 231 240 249 257 262 263 262 259 256 254 253 255 259 262 265 270 275 276 275 270 267 267 267 266 265 262 259 255 251 247 245 243 241 238 234
276 253 240 235 233 225 211 198 187 177 172 173 176 183 191 197 202 206 207 208 210 212 215 219 223 228 234 239 244 245 245 243 241 241 243 248 255 260 263 264 263 259 254 249 245 248 256 265 270 275 279 283 283 278 273 269 268 266 266 263 260 255 251 247 244 242 238 235 229
285 257 242 232 229 225 217 200 185 176 171 167 166 171 178 186 191 195 198 200 203 206 210 217 224 230 235 241 249 255 259 260 260 260 258 258 260 262 263 262 260 256 250 245 241 243 252 263 271 279 284 288 289 285 278 271 267 264 262 260 257 252 247 243 242 240 237 233 230
303 261 243 231 226 224 223 220 214 212 209 200 191 184 181 181 183 185 187 191 195 200 207 215 223 229 234 239 245 252 257 260 263 265 267 268 269 268 265 262 258 252 247 241 239 242 250 262 273 281 287 292 293 291 286 280 273 266 261 258 254 246 240 240 244 246 245 242 241
63 227 225 221 219 219 218 216 212 207 200 191 181 174 170 168 168 170 173 177 183 191 198 206 214 220 227 233 238 244 249 254 257 261 266 270 272 272 269 264 258 252 246 241 240 242 252 264 275 284 292 297 300 300 299 294 288 281 275 269 260 250 242 243 250 254 254 253 253
83 117 150 168 180 183 181 176 171 167 163 158 155 152 150 150 151 154 157 162 168 175 183 192 201 208 216 223 230 237 242 246 249 252 258 263 267 268 267 264 259 254 250 244 241 243 252 265 276 286 294 300 304 307 308 306 302 297 291 284 275 264 255 251 253 256 256 255 256
87 106 120 130 135 136 135 134 135 136 137 138 139 140 142 144 146 148 151 154 158 165 173 184 194 202 209 217 225 232 237 240 242 244 248 252 256 258 259 257 256 254 251 245 240 237 242 253 266 277 287 295 301 305 308 308 305 300 295 289 280 270 260 253 253 254 253 254 256
94 106 116 122 125 124 123 123 125 129 133 137 139 142 145 149 153 156 158 160 166 173 182 192 199 205 209 214 221 226 230 233 235 237 239 241 243 246 247 248 249 250 249 245 238 230 226 229 241 256 270 280 289 294 297 297 295 292 289 285 278 269 260 252 250 249 250 252 256
116 117 120 123 125 126 126 128 131 137 143 149 153 160 167 176 182 185 192 198 205 209 212 216 219 221 221 222 225 228 229 230 231 232 233 235 236 237 239 240 242 244 246 246 240 230 223 224 232 243 255 265 272 277 280 280 279 278 277 275 272 267 262 256 252 252 254 256 259
158 147 140 138 140 143 147 153 161 173 189 217 247 259 258 250 238 232 235 239 239 237 236 237 238 238 238 237 239 241 241 239 239 238 238 237 237 237 237 237 238 241 245 246 243 236 229 228 232 238 245 251 256 261 263 265 266 266 266 265 266 267 266 265 265 265 265 265 265
186 181 176 174 174 179 187 199 213 232 251 263 266 261 255 253 249 243 240 237 235 235 234 235 235 236 239 242 244 246 246 246 245 244 244 243 242 241 239 238 238 240 242 245 244 241 235 232 232 234 237 241 244 248 251 254 257 259 261 263 265 268 270 270 272 273 273 270 268
200 201 201 202 205 210 217 226 235 241 242 231 211 204 220 245 253 253 248 242 238 232 225 219 221 227 232 234 236 238 240 241 241 241 241 242 241 240 239 237 236 237 238 240 241 240 238 235 233 234 235 237 239 242 246 250 257 262 265 264 267 270 271 271 271 271 271 270 267
210 216 220 223 225 226 228 229 226 216 197 176 166 172 198 236 256 264 267 262 254 241 221 203 205 210 213 216 218 220 222 225 227 228 229 230 230 231 231 230 229 230 231 233 236 237 237 236 235 235 235 235 234 235 238 245 254 261 264 261 261 260 262 262 263 264 264 263 261
222 228 231 231 229 223 213 199 182 166 155 149 154 172 207 243 264 275 277 275 267 245 218 204 203 199 197 198 199 201 203 206 208 210 210 212 215 218 219 221 221 221 223 226 230 233 235 235 235 232 228 224 220 217 220 228 239 250 255 256 252 248 248 249 251 253 254 254 253
214 215 208 190 173 160 153 148 144 142 142 149 167 197 228 252 266 271 272 269 255 230 216 216 217 214 205 196 189 182 179 179 179 179 181 183 186 186 187 187 192 204 216 224 229 234 233 233 231 228 223 221 218 218 224 232 239 245 248 248 246 243 242 242 242 243 244 245 246
171 163 154 147 144 141 139 140 143 147 156 172 194 216 235 244 249 250 245 226 199 186 188 196 198 200 192 180 157 135 124 115 111 110 110 108 102 93 81 75 72 73 78 90 139 197 216 224 225 226 226 225 223 225 230 234 238 240 241 241 239 238 238 238 236 235 235 235 236
157 151 147 145 144 143 144 150 156 163 167 170 177 184 188 187 180 161 143 135 133 127 120 115 111 104 98 90 83 74 71 68 63 62 61 62 63 62 62 65 70 75 84 96 117 151 190 213 224 228 229 229 226 227 227 229 232 233 234 234 234 235 236 236 233 231 229 230 233
158 152 147 144 141 141 142 146 151 152 151 146 144 140 134 127 121 117 114 114 114 115 114 110 107 105 100 91 75 60 52 46 46 48 50 53 55 57 62 65 73 82 91 113 142 172 194 210 220 226 227 226 224 221 219 220 223 224 225 226 228 232 234 234 232 230 230 232 237
152 146 140 137 136 136 137 140 142 142 138 133 130 127 124 121 117 112 109 108 110 113 115 117 118 116 111 102 88 75 61 53 49 45 42 40 40 42 44 45 43 50 77 131 166 184 195 204 209 212 214 213 213 210 210 209 210 210 212 214 217 221 225 227 228 229 232 236 242
142 136 131 129 130 131 133 135 137 136 133 128 124 123 123 122 119 115 110 107 109 111 112 112 110 107 101 94 87 80 71 62 54 49 43 40 36 33 25 19 9 7 22 122 159 174 188 194 198 201 202 203 204 204 203 201 199 198 198 199 203 209 215 218 222 227 234 240 247
136 128 122 120 121 123 126 127 127 125 123 123 122 123 123 122 120 117 110 105 105 105 104 102 101 98 94 88 82 76 70 65 61 57 55 53 51 43 32 19 9 9 24 86 140 167 184 192 195 197 198 198 199 199 198 196 193 192 192 195 198 204 211 215 220 228 237 244 250
134 126 118 113 113 116 118 118 117 115 115 118 121 122 122 121 119 113 106 100 99 99 98 98 97 95 90 85 79 75 73 71 69 66 64 62 62 56 45 34 27 31 47 94 160 184 196 200 201 202 202 198 196 193 191 188 189 191 194 197 200 204 210 216 223 231 238 245 251
135 129 122 116 113 113 114 113 111 109 110 113 117 120 121 120 119 114 108 102 98 97 97 99 98 95 89 82 77 74 73 74 74 73 72 71 70 68 61 49 42 43 66 159 184 198 205 205 204 204 203 200 196 192 188 186 188 191 194 197 198 200 206 214 220 225 231 237 243
130 130 129 126 122 120 117 114 112 112 113 113 116 120 122 123 122 119 115 111 106 103 103 103 102 98 93 88 83 80 80 82 85 87 86 83 81 78 70 59 46 38 51 153 180 191 197 200 199 199 199 198 195 192 188 186 188 190 190 191 190 190 194 202 209 214 217 223 229
115 121 126 130 131 130 126 121 119 120 120 120 121 124 127 129 128 126 124 121 118 115 113 112 110 107 104 101 98 97 98 101 102 101 95 89 80 72 64 53 42 36 40 83 149 173 184 188 188 189 190 190 190 189 186 183 185 184 182 180 179 179 182 186 193 199 204 210 218
Height
1452 1453 1455 1456 1456 1457 1457 1458 1458 1458 1459 1460 1461 1462 1463 1464 1464 1465 1466 1468 1469 1470 1471 1471 1471 1471 1471 1471 1472 1473 1474 1475 1476 1478 1479 1480 1480 1480 1479 1479 1479 1480 1480 1481 1481 1481 1481 1482 1483 1485 1486 1486 1486 1486 1487 1487 1488 1489 1489 1490 1491 1491 1492 1492 1493 1494 1494 1495 1496
1451 1452 1453 1454 1456 1456 1457 1457 1457 1458 1459 1459 1461 1461 1462 1463 1464 1465 1466 1467 1469 1470 1470 1470 1470 1470 1471 1471 1472 1472 1473 1475 1476 1477 1478 1479 1479 1479 1479 1479 1479 1480 1480 1481 1481 1481 1481 1482 1483 1485 1486 1486 1486 1486 1487 1488 1489 1489 1490 1490 1491 1491 1492 1492 1493 1493 1494 1495 1496
1450 1451 1452 1453 1454 1456 1456 1457 1457 1458 1458 1459 1459 1461 1462 1463 1464 1465 1466 1467 1468 1469 1470 1470 1469 1469 1470 1470 1471 1472 1473 1474 1475 1476 1476 1477 1477 1477 1478 1479 1479 1480 1480 1481 1481 1481 1481 1482 1483 1484 1485 1486 1486 1486 1487 1488 1488 1489 1490 1490 1491 1491 1491 1492 1493 1493 1494 1494 1495
1449 1450 1451 1452 1453 1455 1456 1456 1457 1458 1458 1458 1458 1459 1461 1462 1463 1464 1466 1467 1468 1469 1470 1470 1469 1469 1469 1470 1471 1471 1472 1473 1474 1475 1476 1476 1476 1476 1477 1478 1479 1480 1480 1481 1481 1481 1481 1481 1482 1483 1484 1485 1485 1486 1486 1487 1488 1489 1489 1490 1491 1491 1491 1492 1493 1493 1494 1494 1495
1448 1449 1450 1451 1452 1453 1455 1456 1457 1457 1457 1457 1458 1458 1460 1461 1462 1464 1465 1466 1467 1468 1469 1470 1470 1470 1470 1470 1470 1471 1471 1472 1474 1475 1475 1476 1476 1476 1476 1477 1478 1479 1480 1480 1480 1480 1481 1481 1481 1482 1483 1484 1484 1485 1486 1486 1487 1487 1488 1489 1490 1491 1491 1492 1492 1493 1493 1494 1494
1447 1448 1449 1450 1451 1452 1454 1455 1456 1457 1457 1458 1458 1458 1459 1460 1461 1463 1465 1466 1467 1468 1469 1470 1470 1470 1470 1470 1470 1471 1471 1472 1473 1474 1475 1475 1476 1476 1477 1477 1478 1479 1479 1480 1480 1480 1481 1481 1481 1482 1482 1483 1484 1484 1485 1486 1486 1487 1487 1488 1489 1490 1491 1491 1491 1492 1493 1493 1494
1446 1447 1448 1449 1450 1451 1452 1454 1455 1456 1457 1457 1458 1458 1458 1460 1461 1462 1464 1466 1467 1468 1469 1470 1470 1470 1470 1470 1470 1470 1471 1472 1473 1473 1474 1475 1476 1476 1477 1477 1478 1478 1479 1479 1480 1480 1480 1480 1481 1481 1482 1482 1483 1483 1484 1485 1486 1486 1487 1487 1488 1489 1490 1490 1491 1491 1492 1492 1493
1445 1446 1447 1448 1449 1450 1451 1453 1454 1455 1456 1457 1458 1458 1459 1459 1461 1462 1463 1465 1466 1468 1469 1470 1470 1470 1470 1470 1470 1470 1471 1472 1472 1473 1474 1475 1476 1476 1477 1477 1478 1478 1479 1479 1479 1479 1480 1480 1480 1481 1481 1482 1482 1483 1483 1484 1484 1485 1486 1486 1487 1488 1488 1489 1490 1490 1491 1491 1492
1444 1445 1446 1446 1448 1449 1450 1451 1452 1454 1455 1456 1457 1458 1459 1459 1460 1461 1462 1464 1465 1467 1468 1469 1470 1470 1470 1469 1469 1469 1470 1471 1472 1473 1474 1475 1476 1476 1477 1477 1477 1478 1478 1478 1479 1479 1479 1479 1479 1480 1480 1481 1481 1482 1482 1483 1484 1484 1485 1486 1486 1487 1487 1488 1489 1489 1490 1491 1491
1442 1443 1444 1445 1446 1447 1449 1450 1451 1452 1454 1455 1456 1457 1459 1459 1460 1461 1462 1463 1464 1465 1467 1468 1469 1469 1469 1469 1468 1469 1469 1470 1471 1472 1473 1474 1475 1476 1476 1477 1477 1477 1478 1478 1478 1478 1478 1478 1479 1479 1480 1480 1481 1481 1481 1482 1483 1484 1484 1485 1486 1486 1486 1487 1488 1488 1489 1490 1491
1442 1442 1443 1444 1445 1446 1447 1448 1450 1451 1452 1454 1455 1456 1458 1459 1460 1460 1461 1462 1463 1464 1465 1466 1467 1467 1467 1467 1467 1468 1468 1469 1471 1471 1473 1474 1474 1475 1476 1476 1477 1477 1477 1477 1478 1478 1478 1478 1478 1479 1479 1480 1480 1480 1481 1481 1482 1483 1483 1484 1485 1485 1486 1486 1487 1488 1488 1489 1490
1441 1441 1442 1443 1444 1445 1446 1447 1448 1450 1451 1452 1454 1455 1456 1458 1459 1460 1461 1461 1462 1462 1463 1464 1465 1466 1466 1466 1466 1467 1467 1468 1470 1471 1472 1473 1474 1475 1475 1476 1476 1476 1476 1477 1477 1477 1477 1478 1478 1478 1479 1479 1479 1480 1480 1481 1481 1482 1482 1483 1484 1485 1485 1486 1486 1487 1488 1489 1490
1441 1441 1441 1442 1442 1443 1445 1446 1447 1448 1449 1451 1452 1453 1455 1456 1457 1459 1460 1460 1461 1461 1462 1463 1463 1464 1464 1465 1465 1466 1466 1467 1469 1470 1471 1472 1473 1474 1475 1475 1476 1476 1476 1476 1476 1476 1477 1477 1478 1478 1478 1479 1479 1479 1480 1480 1480 1481 1481 1482 1483 1484 1484 1485 1486 1486 1487 1488 1489
1440 1441 1441 1441 1442 1442 1443 1444 1446 1447 1448 1449 1450 1451 1453 1454 1456 1457 1458 1458 1459 1460 1460 1461 1462 1462 1463 1464 1464 1465 1466 1466 1468 1469 1470 1471 1472 1473 1473 1474 1475 1475 1475 1476 1476 1476 1476 1476 1477 1477 1478 1478 1478 1479 1479 1479 1479 1480 1480 1481 1481 1482 1483 1484 1485 1486 1486 1487 1488
1440 1441 1441 1441 1441 1442 1443 1443 1445 1446 1446 1447 1449 1450 1451 1452 1453 1455 1456 1456 1457 1458 1459 1460 1460 1461 1462 1463 1463 1464 1465 1466 1467 1468 1469 1470 1471 1471 1472 1473 1474 1474 1474 1475 1475 1475 1476 1476 1476 1477 1477 1477 1478 1478 1478 1478 1479 1479 1479 1480 1480 1481 1482 1482 1483 1484 1485 1486 1487
1440 1440 1441 1441 1441 1442 1442 1443 1444 1445 1446 1446 1447 1448 1450 1451 1452 1453 1454 1455 1456 1457 1458 1458 1459 1460 1461 1462 1462 1463 1464 1465 1466 1466 1467 1468 1469 1470 1471 1472 1472 1473 1473 1474 1474 1475 1475 1475 1476 1476 1476 1476 1477 1477 1477 1478 1478 1478 1479 1479 1480 1480 1481 1481 1482 1483 1484 1485 1486
1440 1440 1441 1441 1442 1442 1443 1443 1444 1444 1445 1446 1446 1447 1448 1450 1451 1452 1453 1454 1455 1456 1456 1457 1458 1459 1460 1461 1462 1462 1463 1464 1465 1465 1466 1466 1467 1468 1470 1471 1471 1472 1472 1473 1473 1473 1474 1474 1475 1475 1475 1476 1476 1476 1476 1477 1477 1477 1478 1478 1479 1479 1480 1481 1481 1482 1482 1483 1484
1439 1440 1441 1441 1442 1442 1443 1443 1444 1445 1445 1446 1446 1447 1448 1449 1450 1451 1452 1453 1454 1455 1456 1456 1457 1458 1459 1460 1461 1461 1462 1463 1463 1464 1465 1465 1466 1467 1468 1469 1470 1471 1471 1471 1472 1472 1472 1473 1473 1474 1474 1474 1475 1475 1476 1476 1476 1477 1477 1478 1478 1479 1479 1480 1480 1481 1481 1482 1483
1439 1440 1440 1441 1442 1442 1443 1444 1444 1445 1445 1446 1447 1447 1448 1449 1450 1451 1452 1453 1453 1454 1455 1455 1456 1457 1458 1459 1460 1460 1461 1462 1462 1463 1464 1464 1465 1466 1466 1467 1468 1469 1470 1470 1470 1471 1471 1471 1472 1472 1473 1473 1474 1474 1475 1475 1476 1476 1476 1477 1478 1478 1479 1479 1480 1481 1481 1482 1482
1439 1440 1440 1441 1441 1442 1443 1444 1445 1445 1446 1446 1447 1448 1449 1450 1451 1451 1452 1452 1453 1454 1454 1455 1456 1456 1457 1458 1459 1459 1460 1461 1461 1462 1463 1463 1464 1465 1465 1466 1466 1467 1468 1468 1469 1469 1469 1470 1470 1471 1471 1472 1472 1473 1473 1474 1474 1475 1476 1476 1477 1477 1478 1479 1479 1480 1481 1481 1481
1440 1440 1440 1441 1441 1442 1443 1444 1445 1445 1446 1447 1448 1449 1449 1450 1451 1451 1452 1452 1453 1453 1454 1455 1455 1456 1456 1457 1458 1458 1459 1460 1461 1461 1462 1462 1463 1463 1464 1464 1465 1465 1466 1466 1466 1467 1467 1468 1468 1469 1470 1470 1471 1471 1472 1472 1473 1473 1474 1475 1476 1476 1477 1478 1478 1479 1480 1480 1481
1440 1440 1440 1441 1441 1442 1443 1444 1445 1446 1446 1447 1448 1449 1449 1450 1451 1451 1451 1452 1453 1453 1454 1454 1455 1456 1456 1456 1457 1458 1458 1459 1460 1460 1461 1461 1462 1462 1463 1463 1464 1464 1464 1464 1465 1465 1465 1466 1466 1467 1468 1468 1469 1469 1470 1470 1471 1471 1472 1473 1474 1475 1476 1476 1477 1478 1478 1479 1480
1441 1441 1441 1441 1442 1443 1444 1445 1445 1446 1447 1447 1448 1448 1449 1450 1450 1451 1451 1452 1452 1453 1454 1454 1455 1455 1456 1456 1457 1457 1458 1458 1459 1459 1460 1461 1461 1461 1462 1462 1463 1463 1463 1463 1463 1464 1464 1465 1466 1466 1466 1467 1467 1468 1468 1469 1470 1471 1471 1472 1473 1474 1475 1476 1476 1477 1477 1478 1478
1441 1441 1441 1442 1443 1444 1444 1445 1446 1446 1446 1447 1448 1448 1449 1450 1450 1451 1451 1452 1452 1453 1453 1454 1454 1455 1455 1456 1456 1457 1457 1458 1458 1459 1459 1460 1460 1461 1461 1462 1462 1462 1462 1462 1463 1463 1464 1464 1465 1465 1466 1466 1466 1467 1468 1469 1470 1471 1471 1472 1473 1474 1474 1475 1475 1476 1476 1477 1477
1441 1442 1442 1442 1443 1444 1444 1445 1445 1446 1446 1447 1448 1448 1449 1449 1450 1451 1451 1451 1452 1452 1453 1453 1454 1454 1455 1455 1456 1456 1457 1457 1457 1458 1459 1459 1460 1460 1461 1461 1461 1461 1462 1462 1462 1463 1463 1464 1464 1464 1465 1466 1466 1467 1468 1469 1470 1471 1471 1472 1473 1473 1473 1474 1474 1475 1475 1476 1476
1442 1442 1442 1442 1443 1443 1444 1444 1445 1446 1446 1447 1447 1448 1448 1449 1449 1450 1450 1451 1451 1451 1452 1452 1452 1453 1453 1454 1454 1455 1456 1456 1456 1457 1457 1458 1458 1459 1459 1459 1460 1461 1461 1462 1462 1462 1462 1463 1463 1464 1464 1465 1466 1467 1468 1469 1470 1471 1471 1472 1472 1472 1473 1473 1474 1474 1474 1475 1475
1442 1442 1442 1442 1443 1443 1444 1444 1445 1445 1446 1446 1447 1447 1448 1448 1449 1449 1450 1450 1451 1451 1451 1451 1452 1452 1452 1453 1453 1454 1454 1454 1455 1455 1456 1456 1456 1457 1457 1458 1458 1459 1460 1461 1461 1461 1462 1462 1462 1463 1464 1465 1466 1466 1467 1468 1469 1470 1470 1471 1471 1471 1472 1472 1473 1473 1473 1474 1474
1441 1442 1442 1442 1443 1443 1444 1444 1445 1445 1446 1446 1446 1447 1447 1447 1448 1448 1448 1449 1449 1450 1450 1450 1451 1451 1451 1451 1452 1452 1452 1453 1453 1454 1454 1454 1455 1455 1456 1456 1457 1458 1459 1460 1461 1461 1461 1461 1462 1462 1463 1464 1465 1466 1467 1467 1468 1469 1469 1470 1470 1471 1471 1471 1472 1472 1473 1473 1473
1441 1441 1441 1442 1442 1443 1444 1444 1445 1445 1445 1445 1446 1446 1446 1446 1446 1447 1447 1447 1448 1448 1449 1449 1449 1450 1450 1450 1451 1451 1451 1452 1452 1452 1453 1453 1454 1454 1455 1456 1456 1457 1458 1459 1460 1460 1461 1461 1461 1462 1463 1463 1464 1465 1466 1466 1467 1467 1468 1468 1469 1470 1470 1471 1471 1472 1472 1472 1473
1441 1441 1441 1442 1442 1443 1443 1444 1444 1444 1445 1445 1445 1445 1446 1446 1446 1446 1446 1446 1447 1447 1448 1448 1449 1449 1449 1449 1450 1450 1451 1451 1451 1452 1452 1453 1453 1454 1454 1455 1456 1456 1457 1458 1459 1460 1460 1461 1461 1462 1462 1463 1464 1464 1465 1466 1466 1466 1467 1467 1468 1469 1469 1470 1471 1471 1471 1472 1472
1441 1441 1441 1442 1442 1443 1443 1443 1444 1444 1444 1445 1445 1445 1445 1445 1446 1446 1446 1446 1446 1447 1447 1448 1448 1449 1449 1449 1450 1450 1450 1451 1451 1451 1452 1452 1453 1453 1454 1455 1455 1456 1456 1457 1458 1459 1460 1460 1461 1461 1462 1463 1463 1464 1464 1465 1465 1466 1466 1467 1467 1468 1469 1469 1470 1470 1471 1471 1471
1441 1441 1441 1442 1442 1442 1443 1443 1444 1444 1444 1444 1445 1445 1445 1445 1446 1446 1446 1446 1447 1447 1447 1448 1448 1449 1449 1449 1450 1450 1450 1451 1451 1451 1452 1452 1453 1453 1454 1454 1455 1456 1456 1457 1458 1458 1459 1460 1461 1461 1462 1462 1463 1463 1464 1464 1465 1465 1466 1466 1467 1467 1468 1468 1469 1469 1470 1470 1471
1441 1441 1441 1442 1442 1443 1443 1443 1444 1444 1444 1444 1445 1445 1445 1446 1446 1446 1446 1447 1447 1447 1448 1448 1448 1449 1449 1450 1450 1450 1451 1451 1451 1451 1452 1452 1453 1453 1454 1455 1455 1456 1456 1457 1458 1458 1459 1460 1460 1461 1461 1462 1462 1463 1463 1464 1464 1465 1465 1466 1466 1466 1467 1467 1468 1468 1469 1469 1470
1441 1441 1442 1442 1442 1443 1443 1444 1444 1444 1444 1445 1445 1445 1446 1446 1446 1446 1446 1447 1447 1448 1448 1448 1449 1449 1450 1450 1451 1451 1451 1451 1452 1452 1453 1453 1453 1454 1454 1455 1456 1456 1457 1457 1458 1458 1459 1460 1460 1461 1461 1461 1462 1462 1463 1463 1464 1464 1465 1465 1466 1466 1466 1467 1467 1468 1468 1469 1469
1441 1442 1442 1442 1443 1443 1443 1444 1444 1444 1445 1445 1445 1446 1446 1446 1446 1446 1447 1447 1448 1448 1448 1449 1449 1450 1450 1451 1451 1451 1451 1452 1452 1453 1453 1453 1454 1454 1455 1455 1456 1456 1457 1457 1458 1458 1459 1459 1460 1461 1461 1461 1462 1462 1463 1463 1464 1464 1465 1465 1465 1466 1466 1467 1467 1467 1468 1468 1469
1441 1442 1442 1442 1443 1443 1444 1444 1444 1445 1445 1445 1446 1446 1446 1446 1446 1447 1447 1448 1448 1448 1449 1449 1449 1450 1450 1451 1451 1451 1452 1452 1453 1453 1453 1454 1454 1455 1455 1455 1456 1456 1457 1457 1458 1458 1459 1459 1460 1460 1461 1461 1462 1462 1463 1463 1464 1464 1465 1465 1465 1466 1466 1466 1467 1467 1468 1468 1469
1441 1442 1442 1442 1443 1443 1443 1444 1444 1445 1445 1445 1446 1446 1446 1446 1447 1447 1447 1448 1448 1448 1449 1449 1450 1450 1450 1451 1451 1451 1452 1452 1453 1453 1454 1454 1454 1455 1455 1456 1456 1456 1457 1457 1458 1458 1459 1459 1459 1460 1461 1461 1461 1462 1463 1463 1464 1464 1464 1465 1465 1466 1466 1466 1467 1467 1467 1468 1468
1441 1442 1442 1443 1443 1443 1444 1444 1444 1445 1445 1446 1446 1446 1446 1447 1447 1447 1448 1448 1449 1449 1449 1450 1450 1451 1451 1451 1451 1452 1452 1453 1453 1453 1454 1454 1455 1455 1455 1456 1456 1456 1457 1457 1458 1458 1458 1459 1459 1460 1460 1461 1461 1462 1462 1463 1463 1464 1464 1465 1465 1465 1466 1466 1466 1467 1467 1467 1468
1441 1442 1442 1443 1443 1444 1444 1444 1445 1445 1445 1446 1446 1446 1447 1447 1447 1448 1448 1449 1449 1449 1450 1450 1451 1451 1451 1452 1452 1452 1453 1453 1453 1454 1454 1454 1455 1455 1455 1456 1456 1456 1457 1457 1458 1458 1458 1459 1459 1459 1460 1460 1461 1461 1462 1462 1463 1463 1464 1464 1465 1465 1465 1466 1466 1466 1466 1467 1467
1442 1442 1443 1443 1443 1444 1444 1445 1445 1445 1446 1446 1446 1447 1447 1447 1448 1448 1449 1449 1450 1450 1451 1451 1451 1451 1452 1452 1452 1453 1453 1453 1454 1454 1454 1455 1455 1455 1456 1456 1456 1456 1456 1457 1457 1458 1458 1458 1459 1459 1460 1460 1460 1461 1461 1462 1462 1463 1463 1464 1464 1464 1465 1465 1466 1466 1466 1466 1466
1443 1443 1443 1444 1444 1444 1445 1445 1445 1446 1446 1446 1447 1447 1447 1448 1448 1449 1449 1450 1450 1451 1451 1451 1452 1452 1452 1453 1453 1453 1454 1454 1454 1455 1455 1455 1455 1455 1456 1456 1456 1456 1456 1456 1457 1457 1457 1458 1458 1459 1459 1459 1460 1460 1461 1461 1462 1462 1462 1463 1463 1464 1464 1465 1465 1466 1466 1466 1466